Content
SEND FEEDBACK

Daily
Averages
Monthly
Summary
United States of America

PACIFIC GROVE, CALIFORNIA


Home > North America > United States > California
Elevation: 331 feet     Latitude: 36 36N     Longitude: 121 55W

WEATHER
 
SELECT A DAY
Number of Records: 192,192;   Date Range: 7/1/96 - 9/16/14
 
SHARE

PRINT THIS DATA

[ ← Previous Day ]
WEATHER ALMANAC - JANUARY 24, 2013
[ Next Day → ]
[ °C ]   °F
Weather ElementAverageHighLow
Temperature53.9 °F57 °F (1:54 pm)50 °F (4:54 am)
Dewpoint51.2 °F54 °F (5:54 pm)46 °F (1:54 am)
Humidity90.7 %97 % (8:54 pm)75 % (11:54 am)
Barometer30.15 in30.22 in (10:54 pm)30.11 in (3:54 am)
Wind Speed1 mph3.5 mph (4:54 am)
Weather ElementAverage
Visibility7.7 mi
Wind DirectionNE (41.6 °)

Weather ElementTotal
Precipitation0.16 in
Heating Degree Days11.5 (Base 65)
Growing Degree Days3.5 (Base 50)
Averaged from 31 records on January 24, 2013
WEATHER CONDITIONS BREAKOUT
WIND DIRECTION BREAKOUT
WEATHER BY HOUR - JANUARY 24, 2013
[ °C ]   °F
Local TimeTemperatureDewpointHumidityBarometerVisibilityWind DirectionWind SpeedGust SpeedPrecipitationEventsConditions
1:54 AM51.1 °F46.0 °F83 %30.12 in10.0 miCalm0.00 inRainLight Rain
2:54 AM51.1 °F48.0 °F89 %30.12 in10.0 miCalm0.00 inRainLight Rain
3:54 AM51.1 °F48.0 °F89 %30.11 in10.0 miCalm0.02 inRainLight Rain
4:54 AM50.0 °F48.0 °F93 %30.11 in10.0 miEast (100°)3.5 mph0.01 inRainLight Rain
5:54 AM50.0 °F48.0 °F93 %30.12 in9.0 miENE (70°)3.5 mph0.02 inRainLight Rain
6:54 AM50.0 °F48.0 °F93 %30.12 in8.0 miCalm0.03 inRainLight Rain
7:54 AM50.0 °F48.9 °F96 %30.14 in8.0 miCalm0.02 inOvercast
8:54 AM51.1 °F48.9 °F92 %30.17 in10.0 miCalmOvercast
9:54 AM52.0 °F48.9 °F89 %30.18 in10.0 miCalmOvercast
10:54 AM54.0 °F48.9 °F83 %30.19 in10.0 miCalmOvercast
11:54 AM55.9 °F48.0 °F75 %30.17 in10.0 miNorth (10°)3.5 mphOvercast
12:54 PM55.0 °F50.0 °F83 %30.15 in6.0 miCalmHaze
1:54 PM57.0 °F50.0 °F77 %30.15 in10.0 miCalmOvercast
2:54 PM55.9 °F52.0 °F87 %30.15 in7.0 miWSW (250°)3.5 mph0.01 inRainLight Rain
3:22 PM55.4 °F51.8 °F88 %30.11 in6.0 miCalm0.01 inRainLight Rain
3:29 PM55.4 °F53.6 °F94 %30.11 in6.0 miCalm0.01 inRainLight Rain
3:41 PM55.4 °F53.6 °F94 %30.11 in8.0 miSW (220°)3.5 mph0.01 inOvercast
3:51 PM55.4 °F53.6 °F94 %30.12 in6.0 miSSW (210°)3.5 mph0.01 inRainLight Rain
3:54 PM55.9 °F53.1 °F90 %30.15 in6.0 miSSW (200°)3.5 mph0.01 inRainLight Rain
4:54 PM55.9 °F53.1 °F90 %30.16 in6.0 miCalm0.00 inOvercast
5:34 PM55.4 °F53.6 °F94 %30.13 in7.0 miCalmOvercast
5:54 PM55.9 °F54.0 °F93 %30.17 in7.0 miCalmOvercast
6:01 PM55.4 °F53.6 °F94 %30.14 in7.0 miCalmOvercast
6:19 PM55.4 °F53.6 °F94 %30.14 in8.0 miCalmOvercast
6:37 PM55.4 °F53.6 °F94 %30.15 in8.0 miSE (140°)3.5 mphPartly Cloudy
6:54 PM55.9 °F54.0 °F93 %30.19 in7.0 miCalmPartly Cloudy
7:54 PM54.0 °F52.0 °F93 %30.19 in5.0 miCalmOvercast
8:54 PM54.0 °F53.1 °F97 %30.20 in6.0 miCalmOvercast
9:54 PM54.0 °F53.1 °F97 %30.21 in4.0 miEast (90°)3.5 mphOvercast
10:54 PM55.0 °F53.1 °F93 %30.22 in7.0 miCalmOvercast
11:54 PM54.0 °F53.1 °F97 %30.22 in6.0 miCalmOvercast
Hourly data recorded from KMRY, located miles away from Pacific Grove, California







STORIES FROM OUR PARTNERS